Regional Weather Roundup
Issued by NWS

Home | Current Version | Previous Version | Text Only | Print | Product List | Glossary Off
Versions: 1 2 3 4 5 6 7 8 9 10 11 12 13 14 15 16 17 18 19 20 21 22 23 24 25 26 27 28 29 30 31 32 33 34 35 36 37 38 39 40 41 42 43 44 45 46 47 48 49 50

000
ASUS45 KSLC 291510
RWRUT

UTAH REGIONAL WEATHER ROUNDUP
NATIONAL WEATHER SERVICE SALT LAKE CITY UT
900 AM MDT FRI AUG 29 2014

UTZ001>011-023>025-291600-

NORTHERN UTAH

CITY           SKY/WX    TMP DP  RH WIND       PRES   REMARKS
HILL AFB       SUNNY     61  44  52 E18       30.13R
LOGAN          SUNNY     60  52  74 CALM      30.12R
OGDEN          SUNNY     65  44  46 S7        30.11R
PROVO AIRPORT  PTSUNNY   63  48  59 E7        30.16S
SALT LAKE CITY MOSUNNY   68  48  48 S8        30.10R
VERNAL         SUNNY     61  50  67 CALM      30.21R
WENDOVER       SUNNY     66  37  34 CALM      30.10R
HEBER CITY     SUNNY     52  46  82 CALM      30.24S
WEST JORDAN    SUNNY     70  52  52 S14       30.13S

$$

UTZ012>022-026-027-291600-

SOUTHERN UTAH

CITY           SKY/WX    TMP DP  RH WIND       PRES   REMARKS
BRYCE CANYON   SUNNY     55  38  52 NW3       30.35S
CEDAR CITY     SUNNY     62  42  47 W6        30.19S
MILFORD        SUNNY     64  39  39 S17       30.15S
MOAB/CYNLANDS  SUNNY     69  51  52 SE3       30.14S
PRICE          SUNNY     64  42  44 CALM      30.23S
ST GEORGE      SUNNY     72  43  35 CALM      30.05S

$$

REGIONAL REPORTS     COLORADO/ARIZONA

CITY           SKY/WX    TMP DP  RH WIND       PRES   REMARKS
CRAIG, CO      SUNNY     58  48  69 E8        30.25S
GRAND JUNCTION SUNNY     63  50  62 SE10      30.19S
RIFLE          SUNNY     58  48  69 VRB3      30.25S
MONTROSE       MOSUNNY   62  45  53 CALM      30.27R
CORTEZ         SUNNY     58  43  57 CALM      30.24S
PAGE, AZ       SUNNY     73  44  35 CALM      30.12S
GRAND CANYON   SUNNY     63  43  48 CALM      30.29R
KINGMAN        SUNNY     77  44  30 SE3       30.04R
FLAGSTAFF      SUNNY     59  45  59 CALM      30.30S

$$

REGIONAL REPORTS    NEVADA/IDAHO/WYOMING

CITY           SKY/WX    TMP DP  RH WIND       PRES   REMARKS
LAS VEGAS, NV  SUNNY     84  38  19 S5        29.90R
ELY            SUNNY     60  40  47 S6        30.22S
ELKO           SUNNY     59  36  42 CALM      30.14R
POCATELLO, ID  SUNNY     63  49  60 CALM      30.10S
BURLEY         MOSUNNY   61  49  64 CALM      30.07R
EVANSTON, WY   MOSUNNY   56  40  55 S5        30.29R
ROCK SPRINGS   SUNNY     60  41  49 W6        30.25S

$$



USA.gov is the U.S. government's official web portal to all federal, state and local government web resources and services.